Location: Liscomb Game Sanctuary
(45.1633°N, 62.5575°W)
Time: 17:39:43

FREGAT/IRIS - Pass Details

Date: 22 February 2018
Orbit: 374 x 379 km, 97.0° (Epoch: 21 March)

Event Time Altitude Azimuth Distance (km) Brightness Sun altitude
Rises 19:04:56 0° 170° (S) 2,234 6.3 -14.3°
Reaches altitude 10° 19:06:52 10° 173° (S) 1,389 5.3 -14.6°
Maximum altitude 19:09:49 74° 258° (WSW) 401 2.7 -15.1°
Drops below altitude 10° 19:12:49 10° 344° (NNW) 1,406 5.6 -15.7°
Sets 19:14:48 0° 347° (NNW) 2,266 6.7 -16.0°
